This demonstration page uses our WeatherBlox Daily Observations layout. Learn more.

36.17497, -115.13722

Hourly Observations for July 27, 2016

Temp ( °F °C ) Dew Point ( °F °C ) Humidity (%) Winds ( mph kmh ) Pressure ( in mb ) Visibility ( mi km ) Precip ( " mm )
12:53 am 00:53 Clear 94 34.4 45 7.2 18 18 Calm 29.65 1004 10 16.09344 0 0
1:53 am 01:53 Clear 93 33.9 43 6.1 18 18 NNE 6 9 29.65 1004 10 16.09344 0 0
2:53 am 02:53 Clear 90 32.2 46 7.8 22 22 Calm 29.65 1004 10 16.09344 0 0
3:53 am 03:53 Clear 88 31.1 49 9.4 26 26 N 5 7 29.65 1004 10 16.09344 0 0
4:53 am 04:53 Clear 90 32.2 45 7.2 21 21 NW 6 9 29.68 1005 10 16.09344 0 0
5:53 am 05:53 Sunny 88 31.1 47 8.3 24 24 Calm 29.74 1007 10 16.09344 0 0
6:53 am 06:53 Sunny 89 31.7 49 9.4 25 25 Calm 29.71 1006 10 16.09344 0 0
7:53 am 07:53 Sunny 93 33.9 46 7.8 20 20 N 6 9 29.74 1007 10 16.09344 0 0
8:53 am 08:53 Sunny 96 35.6 47 8.3 19 19 ENE 3 6 29.74 1007 10 16.09344 0 0
9:53 am 09:53 Sunny 99 37.2 46 7.8 16 16 E 7 11 29.71 1006 10 16.09344 0 0
10:53 am 10:53 Sunny 102 38.9 46 7.8 15 15 N 5 7 29.71 1006 10 16.09344 0 0
11:53 am 11:53 Sunny 105 40.6 46 7.8 14 14 Calm 29.68 1005 10 16.09344 0 0
12:53 pm 12:53 Sunny 108 42.2 46 7.8 12 12 SSE 8 13 29.65 1004 10 16.09344 0 0
1:53 pm 13:53 Sunny 109 42.8 43 6.1 11 11 N 3 6 29.62 1003 10 16.09344 0 0
2:53 pm 14:53 Sunny 112 44.4 43 6.1 10 10 ESE 7 11 29.56 1001 10 16.09344 0 0
3:53 pm 15:53 Sunny 113 45 42 5.6 9 9 ESE 10 17 29.53 1000 10 16.09344 0 0
4:53 pm 16:53 Sunny 112 44.4 43 6.1 10 10 SW 8 13 29.53 1000 10 16.09344 0 0
5:53 pm 17:53 Sunny 111 43.9 43 6.1 10 10 SSW 9 15 29.5 999 10 16.09344 0 0
6:53 pm 18:53 Sunny 110 43.3 46 7.8 12 12 WSW 10 17 29.5 999 10 16.09344 0 0
7:53 pm 19:53 Clear 108 42.2 44 6.7 12 12 WSW 8 13 29.56 1001 10 16.09344 0 0
8:53 pm 20:53 Clear 105 40.6 44 6.7 13 13 S 7 11 29.56 1001 10 16.09344 0 0
9:53 pm 21:53 Clear 103 39.4 46 7.8 15 15 SW 10 17 29.56 1001 10 16.09344 0 0
10:53 pm 22:53 Clear 102 38.9 47 8.3 15 15 WSW 7 11 29.56 1001 10 16.09344 0 0
11:53 pm 23:53 Clear 100 37.8 46 7.8 16 16 W 3 6 29.62 1003 10 16.09344 0 0

Powered by AerisWeather